contact:dominique.lefevre@mio.osupytheas.fr, maurice.libes@osupytheas.fr, didier.mallarino@osupytheas.fr
Project:EMSO http://www.emso-fr.org/EMSO-France
Depth: 2436.0 m
Title:EMSO Ligure Ouest : Data MII capteur CSTAR
DateTime,Latitude,Longitude,Instrument_Serial,Reference_Counts,Signal_Counts,Corrected_Signal_raw_counts,Calculated_Beam_c_inverse_meters,Internal_thermistor_counts
DateTime,Latitude,Longitude,Instrument_Serial,Reference_Counts,Signal_Counts,Corrected_Signal_raw_counts,Calculated_Beam_c_inverse_meters,Internal_thermistor_counts
2023-11-24T00:00:21,42.805,6.029,CST-1368DR,4102,4351,11239,01.316,553
2023-11-24T00:03:22,42.805,6.029,CST-1368DR,4102,4352,11242,01.315,553
2023-11-24T00:06:24,42.805,6.029,CST-1368DR,4102,4351,11239,01.316,553
2023-11-24T00:09:25,42.805,6.029,CST-1368DR,4102,4351,11241,01.315,553
2023-11-24T00:12:27,42.805,6.029,CST-1368DR,4102,4352,11243,01.314,553
2023-11-24T00:15:29,42.805,6.029,CST-1368DR,4102,4352,11243,01.314,553
2023-11-24T00:18:30,42.805,6.029,CST-1368DR,4102,4352,11243,01.314,553
2023-11-24T00:21:32,42.805,6.029,CST-1368DR,4102,4352,11241,01.315,553
2023-11-24T00:24:33,42.805,6.029,CST-1368DR,4102,4352,11241,01.315,552
2023-11-24T00:27:35,42.805,6.029,CST-1368DR,4102,4352,11243,01.314,553
2023-11-24T00:30:37,42.805,6.029,CST-1368DR,4102,4352,11241,01.315,553
2023-11-24T00:33:38,42.805,6.029,CST-1368DR,4102,4354,11248,01.312,553
2023-11-24T00:36:40,42.805,6.029,CST-1368DR,4102,4350,11238,01.316,553
2023-11-24T00:39:41,42.805,6.029,CST-1368DR,4102,4352,11243,01.314,553
2023-11-24T00:42:43,42.805,6.029,CST-1368DR,4102,4352,11241,01.315,553
2023-11-24T00:45:44,42.805,6.029,CST-1368DR,4102,4352,11242,01.315,553
2023-11-24T00:48:46,42.805,6.029,CST-1368DR,4102,4351,11240,01.315,553
2023-11-24T00:51:48,42.805,6.029,CST-1368DR,4102,4352,11242,01.315,552
2023-11-24T00:54:49,42.805,6.029,CST-1368DR,4102,4352,11243,01.314,553
2023-11-24T00:57:51,42.805,6.029,CST-1368DR,4102,4352,11242,01.315,553
2023-11-24T01:00:52,42.805,6.029,CST-1368DR,4102,4352,11243,01.314,553
2023-11-24T01:03:54,42.805,6.029,CST-1368DR,4102,4352,11242,01.315,553
2023-11-24T01:06:55,42.805,6.029,CST-1368DR,4102,4352,11242,01.315,553
2023-11-24T01:09:57,42.805,6.029,CST-1368DR,4102,4351,11240,01.315,553
2023-11-24T01:12:59,42.805,6.029,CST-1368DR,4102,4351,11239,01.316,553
2023-11-24T01:16:00,42.805,6.029,CST-1368DR,4102,4351,11239,01.316,553
2023-11-24T01:19:02,42.805,6.029,CST-1368DR,4102,4347,11230,01.319,553
2023-11-24T01:22:03,42.805,6.029,CST-1368DR,4102,4351,11241,01.315,553
2023-11-24T01:25:05,42.805,6.029,CST-1368DR,4102,4349,11234,01.317,553
2023-11-24T01:28:07,42.805,6.029,CST-1368DR,4102,4351,11239,01.316,553
2023-11-24T01:31:08,42.805,6.029,CST-1368DR,4102,4351,11239,01.316,553
2023-11-24T01:34:10,42.805,6.029,CST-1368DR,4102,4350,11237,01.316,553
2023-11-24T01:37:11,42.805,6.029,CST-1368DR,4102,4351,11240,01.315,553
2023-11-24T01:40:13,42.805,6.029,CST-1368DR,4102,4351,11240,01.315,553
2023-11-24T01:43:14,42.805,6.029,CST-1368DR,4102,4349,11235,01.317,553
2023-11-24T01:46:16,42.805,6.029,CST-1368DR,4102,4350,11236,01.317,553
2023-11-24T01:49:18,42.805,6.029,CST-1368DR,4102,4351,11239,01.316,553
2023-11-24T01:52:19,42.805,6.029,CST-1368DR,4102,4350,11236,01.317,553
2023-11-24T01:55:21,42.805,6.029,CST-1368DR,4102,4352,11241,01.315,553
2023-11-24T01:58:22,42.805,6.029,CST-1368DR,4102,4352,11241,01.315,553
2023-11-24T02:01:24,42.805,6.029,CST-1368DR,4102,4352,11241,01.315,553
2023-11-24T02:04:25,42.805,6.029,CST-1368DR,4102,4352,11242,01.315,553
2023-11-24T02:07:27,42.805,6.029,CST-1368DR,4102,4352,11241,01.315,553
2023-11-24T02:10:29,42.805,6.029,CST-1368DR,4102,4351,11240,01.315,553
2023-11-24T02:13:30,42.805,6.029,CST-1368DR,4102,4351,11241,01.315,553
2023-11-24T02:16:32,42.805,6.029,CST-1368DR,4102,4352,11241,01.315,553
2023-11-24T02:19:33,42.805,6.029,CST-1368DR,4102,4352,11243,01.314,553
2023-11-24T02:22:35,42.805,6.029,CST-1368DR,4102,4352,11243,01.314,553
2023-11-24T02:25:37,42.805,6.029,CST-1368DR,4102,4352,11241,01.315,553
2023-11-24T02:28:38,42.805,6.029,CST-1368DR,4102,4351,11239,01.316,552
2023-11-24T02:31:40,42.805,6.029,CST-1368DR,4102,4352,11241,01.315,553
2023-11-24T02:34:41,42.805,6.029,CST-1368DR,4102,4352,11242,01.315,553
2023-11-24T02:37:43,42.805,6.029,CST-1368DR,4102,4352,11243,01.314,553
2023-11-24T02:40:44,42.805,6.029,CST-1368DR,4102,4351,11241,01.315,553
2023-11-24T02:43:46,42.805,6.029,CST-1368DR,4102,4352,11243,01.314,553
2023-11-24T02:46:48,42.805,6.029,CST-1368DR,4102,4352,11242,01.315,553
2023-11-24T02:49:49,42.805,6.029,CST-1368DR,4102,4351,11239,01.316,553
2023-11-24T02:52:51,42.805,6.029,CST-1368DR,4102,4351,11239,01.316,553
2023-11-24T02:55:52,42.805,6.029,CST-1368DR,4102,4349,11234,01.317,553
2023-11-24T02:58:54,42.805,6.029,CST-1368DR,4102,4351,11241,01.315,553
2023-11-24T03:01:55,42.805,6.029,CST-1368DR,4102,4351,11239,01.316,553
2023-11-24T03:04:57,42.805,6.029,CST-1368DR,4102,4351,11241,01.315,553
2023-11-24T03:07:59,42.805,6.029,CST-1368DR,4102,4352,11243,01.314,553
2023-11-24T03:11:00,42.805,6.029,CST-1368DR,4102,4350,11237,01.316,553
2023-11-24T03:14:02,42.805,6.029,CST-1368DR,4102,4352,11241,01.315,553
2023-11-24T03:17:03,42.805,6.029,CST-1368DR,4102,4351,11241,01.315,553
2023-11-24T03:20:05,42.805,6.029,CST-1368DR,4102,4351,11240,01.315,553
2023-11-24T03:23:07,42.805,6.029,CST-1368DR,4102,4354,11246,01.313,553
2023-11-24T03:26:08,42.805,6.029,CST-1368DR,4102,4351,11240,01.315,553
2023-11-24T03:29:10,42.805,6.029,CST-1368DR,4102,4350,11238,01.316,553
2023-11-24T03:32:11,42.805,6.029,CST-1368DR,4102,4349,11234,01.317,553
2023-11-24T03:35:13,42.805,6.029,CST-1368DR,4102,4352,11241,01.315,553
2023-11-24T03:38:14,42.805,6.029,CST-1368DR,4102,4351,11241,01.315,553
2023-11-24T03:41:16,42.805,6.029,CST-1368DR,4102,4351,11240,01.315,553
2023-11-24T03:44:18,42.805,6.029,CST-1368DR,4102,4351,11240,01.315,553
2023-11-24T03:47:19,42.805,6.029,CST-1368DR,4102,4351,11240,01.315,553
2023-11-24T03:50:21,42.805,6.029,CST-1368DR,4102,4350,11237,01.316,553
2023-11-24T03:53:22,42.805,6.029,CST-1368DR,4102,4350,11236,01.317,553
2023-11-24T03:56:24,42.805,6.029,CST-1368DR,4102,4351,11239,01.316,553
2023-11-24T03:59:25,42.805,6.029,CST-1368DR,4102,4349,11234,01.317,553
2023-11-24T04:02:27,42.805,6.029,CST-1368DR,4102,4349,11235,01.317,553
2023-11-24T04:05:29,42.805,6.029,CST-1368DR,4102,4350,11238,01.316,553
2023-11-24T04:08:30,42.805,6.029,CST-1368DR,4102,4351,11239,01.316,553
2023-11-24T04:11:32,42.805,6.029,CST-1368DR,4102,4350,11237,01.316,553
2023-11-24T04:14:33,42.805,6.029,CST-1368DR,4102,4350,11238,01.316,553
2023-11-24T04:17:35,42.805,6.029,CST-1368DR,4102,4349,11235,01.317,553
2023-11-24T04:20:37,42.805,6.029,CST-1368DR,4102,4351,11239,01.316,553
2023-11-24T04:23:38,42.805,6.029,CST-1368DR,4102,4350,11237,01.316,553
2023-11-24T04:26:40,42.805,6.029,CST-1368DR,4102,4350,11237,01.316,553
2023-11-24T04:29:41,42.805,6.029,CST-1368DR,4102,4351,11239,01.316,553
2023-11-24T04:32:43,42.805,6.029,CST-1368DR,4102,4349,11235,01.317,553
2023-11-24T04:35:44,42.805,6.029,CST-1368DR,4102,4349,11235,01.317,553
2023-11-24T04:38:46,42.805,6.029,CST-1368DR,4102,4351,11239,01.316,553
2023-11-24T04:41:48,42.805,6.029,CST-1368DR,4102,4349,11235,01.317,553
2023-11-24T04:44:49,42.805,6.029,CST-1368DR,4102,4350,11237,01.316,553
2023-11-24T04:47:51,42.805,6.029,CST-1368DR,4102,4349,11235,01.317,553
2023-11-24T04:50:52,42.805,6.029,CST-1368DR,4102,4350,11236,01.317,553
2023-11-24T04:53:54,42.805,6.029,CST-1368DR,4102,4350,11236,01.317,553
2023-11-24T04:56:55,42.805,6.029,CST-1368DR,4102,4350,11237,01.316,553
2023-11-24T04:59:57,42.805,6.029,CST-1368DR,4102,4349,11235,01.317,553
2023-11-24T05:02:59,42.805,6.029,CST-1368DR,4102,4348,11232,01.318,553
2023-11-24T05:06:00,42.805,6.029,CST-1368DR,4102,4349,11235,01.317,553
2023-11-24T05:09:02,42.805,6.029,CST-1368DR,4102,4349,11235,01.317,553
2023-11-24T05:12:03,42.805,6.029,CST-1368DR,4102,4349,11235,01.317,553
2023-11-24T05:15:05,42.805,6.029,CST-1368DR,4102,4349,11235,01.317,553
2023-11-24T05:18:07,42.805,6.029,CST-1368DR,4102,4349,11235,01.317,552
2023-11-24T05:21:08,42.805,6.029,CST-1368DR,4102,4350,11236,01.317,553
2023-11-24T05:24:10,42.805,6.029,CST-1368DR,4102,4349,11234,01.317,553
2023-11-24T05:27:11,42.805,6.029,CST-1368DR,4102,4349,11233,01.318,553
2023-11-24T05:30:13,42.805,6.029,CST-1368DR,4102,4348,11232,01.318,553
2023-11-24T05:33:14,42.805,6.029,CST-1368DR,4102,4350,11236,01.317,553
2023-11-24T05:36:16,42.805,6.029,CST-1368DR,4102,4349,11234,01.317,553
2023-11-24T05:39:18,42.805,6.029,CST-1368DR,4102,4349,11235,01.317,553
2023-11-24T05:42:19,42.805,6.029,CST-1368DR,4102,4350,11237,01.316,553
2023-11-24T05:45:21,42.805,6.029,CST-1368DR,4102,4351,11239,01.316,553
2023-11-24T05:48:22,42.805,6.029,CST-1368DR,4102,4349,11235,01.317,553
2023-11-24T05:51:24,42.805,6.029,CST-1368DR,4102,4350,11237,01.316,553
2023-11-24T05:54:25,42.805,6.029,CST-1368DR,4102,4350,11238,01.316,553
2023-11-24T05:57:27,42.805,6.029,CST-1368DR,4102,4351,11239,01.316,553
2023-11-24T06:00:29,42.805,6.029,CST-1368DR,4102,4351,11239,01.316,553
2023-11-24T06:03:30,42.805,6.029,CST-1368DR,4102,4350,11238,01.316,553
2023-11-24T06:06:32,42.805,6.029,CST-1368DR,4102,4349,11234,01.317,553
2023-11-24T06:09:33,42.805,6.029,CST-1368DR,4102,4350,11236,01.317,553
2023-11-24T06:12:35,42.805,6.029,CST-1368DR,4102,4348,11233,01.318,553
2023-11-24T06:15:37,42.805,6.029,CST-1368DR,4102,4351,11239,01.316,553
2023-11-24T06:18:38,42.805,6.029,CST-1368DR,4102,4351,11240,01.315,553
2023-11-24T06:21:40,42.805,6.029,CST-1368DR,4102,4351,11241,01.315,553
2023-11-24T06:24:41,42.805,6.029,CST-1368DR,4102,4350,11238,01.316,553
2023-11-24T06:27:43,42.805,6.029,CST-1368DR,4102,4351,11239,01.316,553
2023-11-24T06:30:44,42.805,6.029,CST-1368DR,4102,4351,11239,01.316,553
2023-11-24T06:33:46,42.805,6.029,CST-1368DR,4102,4351,11239,01.316,553
2023-11-24T06:36:48,42.805,6.029,CST-1368DR,4102,4351,11239,01.316,553
2023-11-24T06:39:49,42.805,6.029,CST-1368DR,4102,4351,11240,01.315,553
2023-11-24T06:42:51,42.805,6.029,CST-1368DR,4102,4351,11239,01.316,553
2023-11-24T06:45:52,42.805,6.029,CST-1368DR,4102,4351,11239,01.316,553
2023-11-24T06:48:54,42.805,6.029,CST-1368DR,4102,4351,11239,01.316,553
2023-11-24T06:51:55,42.805,6.029,CST-1368DR,4102,4351,11240,01.315,553
2023-11-24T06:54:57,42.805,6.029,CST-1368DR,4102,4351,11240,01.315,553
2023-11-24T06:57:59,42.805,6.029,CST-1368DR,4102,4349,11235,01.317,553
2023-11-24T07:01:00,42.805,6.029,CST-1368DR,4102,4351,11241,01.315,553
2023-11-24T07:04:02,42.805,6.029,CST-1368DR,4102,4351,11240,01.315,553
2023-11-24T07:07:03,42.805,6.029,CST-1368DR,4102,4352,11241,01.315,552
2023-11-24T07:10:05,42.805,6.029,CST-1368DR,4102,4352,11241,01.315,553
2023-11-24T07:13:07,42.805,6.029,CST-1368DR,4102,4352,11241,01.315,553
2023-11-24T07:16:08,42.805,6.029,CST-1368DR,4102,4354,11246,01.313,553
2023-11-24T07:19:10,42.805,6.029,CST-1368DR,4102,4353,11244,01.314,553
2023-11-24T07:22:11,42.805,6.029,CST-1368DR,4102,4352,11243,01.314,553
2023-11-24T07:25:13,42.805,6.029,CST-1368DR,4102,4353,11244,01.314,553
2023-11-24T07:28:14,42.805,6.029,CST-1368DR,4102,4351,11241,01.315,553
2023-11-24T07:31:18,42.805,6.029,CST-1368DR,4102,4349,11235,01.317,553
2023-11-24T07:34:20,42.805,6.029,CST-1368DR,4102,4352,11243,01.314,553
2023-11-24T07:37:21,42.805,6.029,CST-1368DR,4102,4351,11241,01.315,553
2023-11-24T07:40:23,42.805,6.029,CST-1368DR,4102,4352,11243,01.314,553
2023-11-24T07:43:25,42.805,6.029,CST-1368DR,4102,4355,11249,01.312,553
2023-11-24T07:46:26,42.805,6.029,CST-1368DR,4102,4354,11247,01.313,553
2023-11-24T07:49:28,42.805,6.029,CST-1368DR,4102,4353,11246,01.313,553
2023-11-24T07:52:29,42.805,6.029,CST-1368DR,4102,4353,11246,01.313,552
2023-11-24T07:55:31,42.805,6.029,CST-1368DR,4102,4351,11240,01.315,553
2023-11-24T07:58:32,42.805,6.029,CST-1368DR,4102,4354,11247,01.313,553
2023-11-24T08:01:34,42.805,6.029,CST-1368DR,4102,4352,11243,01.314,553
2023-11-24T08:04:36,42.805,6.029,CST-1368DR,4102,4353,11244,01.314,553
2023-11-24T08:07:37,42.805,6.029,CST-1368DR,4102,4353,11244,01.314,553
2023-11-24T08:10:39,42.805,6.029,CST-1368DR,4102,4352,11242,01.315,553
2023-11-24T08:13:40,42.805,6.029,CST-1368DR,4102,4351,11239,01.316,553
2023-11-24T08:16:42,42.805,6.029,CST-1368DR,4102,4353,11244,01.314,553
2023-11-24T08:19:43,42.805,6.029,CST-1368DR,4102,4352,11242,01.315,553
2023-11-24T08:22:45,42.805,6.029,CST-1368DR,4102,4351,11240,01.315,552
2023-11-24T08:25:47,42.805,6.029,CST-1368DR,4102,4353,11244,01.314,553
2023-11-24T08:28:48,42.805,6.029,CST-1368DR,4102,4353,11244,01.314,553
2023-11-24T08:31:50,42.805,6.029,CST-1368DR,4102,4353,11244,01.314,553
2023-11-24T08:34:51,42.805,6.029,CST-1368DR,4102,4353,11244,01.314,553
2023-11-24T08:37:53,42.805,6.029,CST-1368DR,4102,4354,11247,01.313,553
2023-11-24T08:40:55,42.805,6.029,CST-1368DR,4102,4354,11247,01.313,553
2023-11-24T08:43:56,42.805,6.029,CST-1368DR,4102,4353,11244,01.314,553
2023-11-24T08:46:58,42.805,6.029,CST-1368DR,4102,4353,11244,01.314,553
2023-11-24T08:49:59,42.805,6.029,CST-1368DR,4102,4352,11242,01.315,553
2023-11-24T08:53:01,42.805,6.029,CST-1368DR,4102,4352,11243,01.314,553
2023-11-24T08:56:02,42.805,6.029,CST-1368DR,4102,4351,11239,01.316,553
2023-11-24T08:59:04,42.805,6.029,CST-1368DR,4102,4350,11237,01.316,553
2023-11-24T09:02:06,42.805,6.029,CST-1368DR,4102,4352,11241,01.315,553
2023-11-24T09:05:07,42.805,6.029,CST-1368DR,4102,4352,11243,01.314,553
2023-11-24T09:08:09,42.805,6.029,CST-1368DR,4102,4350,11238,01.316,553
2023-11-24T09:11:10,42.805,6.029,CST-1368DR,4102,4354,11246,01.313,553
2023-11-24T09:14:12,42.805,6.029,CST-1368DR,4102,4352,11242,01.315,553
2023-11-24T09:17:13,42.805,6.029,CST-1368DR,4102,4352,11243,01.314,553
2023-11-24T09:20:15,42.805,6.029,CST-1368DR,4102,4352,11243,01.314,553
2023-11-24T09:23:17,42.805,6.029,CST-1368DR,4102,4353,11244,01.314,553
2023-11-24T09:26:18,42.805,6.029,CST-1368DR,4102,4352,11243,01.314,553
2023-11-24T09:29:20,42.805,6.029,CST-1368DR,4102,4351,11241,01.315,553
2023-11-24T09:32:22,42.805,6.029,CST-1368DR,4102,4352,11242,01.315,553
2023-11-24T09:35:23,42.805,6.029,CST-1368DR,4102,4353,11244,01.314,553
2023-11-24T09:38:25,42.805,6.029,CST-1368DR,4102,4353,11244,01.314,553
2023-11-24T09:41:26,42.805,6.029,CST-1368DR,4102,4353,11244,01.314,553
2023-11-24T09:44:28,42.805,6.029,CST-1368DR,4102,4354,11247,01.313,553
2023-11-24T09:47:29,42.805,6.029,CST-1368DR,4102,4354,11246,01.313,553
2023-11-24T09:50:31,42.805,6.029,CST-1368DR,4102,4352,11241,01.315,553
2023-11-24T09:53:33,42.805,6.029,CST-1368DR,4102,4352,11241,01.315,553
2023-11-24T09:56:34,42.805,6.029,CST-1368DR,4102,4354,11246,01.313,553
2023-11-24T09:59:36,42.805,6.029,CST-1368DR,4102,4353,11244,01.314,553
2023-11-24T10:02:37,42.805,6.029,CST-1368DR,4102,4354,11247,01.313,553
2023-11-24T10:05:39,42.805,6.029,CST-1368DR,4102,4354,11248,01.312,553
2023-11-24T10:08:40,42.805,6.029,CST-1368DR,4102,4353,11246,01.313,553
2023-11-24T10:11:42,42.805,6.029,CST-1368DR,4102,4355,11249,01.312,553
2023-11-24T10:14:44,42.805,6.029,CST-1368DR,4102,4355,11249,01.312,553
2023-11-24T10:17:45,42.805,6.029,CST-1368DR,4102,4353,11244,01.314,553
2023-11-24T10:20:47,42.805,6.029,CST-1368DR,4102,4353,11244,01.314,553
2023-11-24T10:23:48,42.805,6.029,CST-1368DR,4102,4354,11248,01.312,553
2023-11-24T10:26:50,42.805,6.029,CST-1368DR,4102,4354,11248,01.312,553
2023-11-24T10:29:51,42.805,6.029,CST-1368DR,4102,4355,11250,01.312,553
2023-11-24T10:32:53,42.805,6.029,CST-1368DR,4102,4355,11250,01.312,553
2023-11-24T10:35:55,42.805,6.029,CST-1368DR,4102,4354,11248,01.312,553
2023-11-24T10:38:56,42.805,6.029,CST-1368DR,4102,4356,11252,01.311,553
2023-11-24T10:41:58,42.805,6.029,CST-1368DR,4102,4355,11250,01.312,553
2023-11-24T10:44:59,42.805,6.029,CST-1368DR,4102,4355,11251,01.311,553
2023-11-24T10:48:01,42.805,6.029,CST-1368DR,4102,4356,11253,01.311,553
2023-11-24T10:51:03,42.805,6.029,CST-1368DR,4102,4349,11234,01.317,553
2023-11-24T10:54:04,42.805,6.029,CST-1368DR,4102,4357,11255,01.310,553
2023-11-24T10:57:06,42.805,6.029,CST-1368DR,4102,4358,11258,01.309,553
2023-11-24T11:00:07,42.805,6.029,CST-1368DR,4102,4357,11255,01.310,553
2023-11-24T11:03:09,42.805,6.029,CST-1368DR,4102,4357,11256,01.310,553
2023-11-24T11:06:10,42.805,6.029,CST-1368DR,4102,4357,11255,01.310,553
2023-11-24T11:09:12,42.805,6.029,CST-1368DR,4102,4357,11255,01.310,553
2023-11-24T11:12:14,42.805,6.029,CST-1368DR,4102,4356,11252,01.311,553
2023-11-24T11:15:15,42.805,6.029,CST-1368DR,4102,4356,11252,01.311,553
2023-11-24T11:18:17,42.805,6.029,CST-1368DR,4102,4357,11255,01.310,553
2023-11-24T11:21:18,42.805,6.029,CST-1368DR,4102,4355,11251,01.311,553
2023-11-24T11:24:20,42.805,6.029,CST-1368DR,4102,4355,11250,01.312,553
2023-11-24T11:27:21,42.805,6.029,CST-1368DR,4102,4353,11244,01.314,552
2023-11-24T11:30:25,42.805,6.029,CST-1368DR,4102,4356,11254,01.310,553
2023-11-24T11:33:26,42.805,6.029,CST-1368DR,4102,4357,11255,01.310,553
2023-11-24T11:36:28,42.805,6.029,CST-1368DR,4102,4355,11251,01.311,553
2023-11-24T11:39:29,42.805,6.029,CST-1368DR,4102,4346,11226,01.320,553
2023-11-24T11:42:31,42.805,6.029,CST-1368DR,4102,4356,11253,01.311,553
2023-11-24T11:45:33,42.805,6.029,CST-1368DR,4102,4356,11252,01.311,553
2023-11-24T11:48:34,42.805,6.029,CST-1368DR,4102,4355,11249,01.312,553
2023-11-24T11:51:36,42.805,6.029,CST-1368DR,4102,4355,11251,01.311,553
2023-11-24T11:54:37,42.805,6.029,CST-1368DR,4102,4357,11256,01.310,553
2023-11-24T11:57:39,42.805,6.029,CST-1368DR,4102,4356,11254,01.310,553
2023-11-24T12:00:40,42.805,6.029,CST-1368DR,4102,4356,11254,01.310,553
2023-11-24T12:03:42,42.805,6.029,CST-1368DR,4102,4355,11250,01.312,553
2023-11-24T12:06:44,42.805,6.029,CST-1368DR,4102,4357,11256,01.310,553
2023-11-24T12:09:45,42.805,6.029,CST-1368DR,4102,4356,11253,01.311,553
2023-11-24T12:12:47,42.805,6.029,CST-1368DR,4102,4355,11250,01.312,553
2023-11-24T12:15:48,42.805,6.029,CST-1368DR,4102,4356,11252,01.311,553
2023-11-24T12:18:50,42.805,6.029,CST-1368DR,4102,4357,11255,01.310,553
2023-11-24T12:21:51,42.805,6.029,CST-1368DR,4102,4358,11257,01.309,553
2023-11-24T12:24:53,42.805,6.029,CST-1368DR,4102,4357,11256,01.310,553
2023-11-24T12:27:55,42.805,6.029,CST-1368DR,4102,4359,11261,01.308,553
2023-11-24T12:30:56,42.805,6.029,CST-1368DR,4102,4359,11260,01.308,553
2023-11-24T12:33:58,42.805,6.029,CST-1368DR,4102,4359,11261,01.308,553
2023-11-24T12:36:59,42.805,6.029,CST-1368DR,4102,4359,11261,01.308,553
2023-11-24T12:40:01,42.805,6.029,CST-1368DR,4102,4358,11259,01.309,553
2023-11-24T12:43:03,42.805,6.029,CST-1368DR,4102,4359,11259,01.309,553
2023-11-24T12:46:04,42.805,6.029,CST-1368DR,4102,4358,11257,01.309,553
2023-11-24T12:49:06,42.805,6.029,CST-1368DR,4102,4358,11258,01.309,553
2023-11-24T12:52:07,42.805,6.029,CST-1368DR,4102,4358,11257,01.309,553
2023-11-24T12:55:09,42.805,6.029,CST-1368DR,4102,4358,11258,01.309,553
2023-11-24T12:58:10,42.805,6.029,CST-1368DR,4102,4358,11258,01.309,553
2023-11-24T13:01:12,42.805,6.029,CST-1368DR,4102,4357,11256,01.310,553
2023-11-24T13:04:14,42.805,6.029,CST-1368DR,4102,4359,11259,01.309,553
2023-11-24T13:07:15,42.805,6.029,CST-1368DR,4102,4357,11255,01.310,553
2023-11-24T13:10:17,42.805,6.029,CST-1368DR,4102,4360,11262,01.307,553
2023-11-24T13:13:18,42.805,6.029,CST-1368DR,4102,4358,11257,01.309,553
2023-11-24T13:16:20,42.805,6.029,CST-1368DR,4102,4359,11261,01.308,553
2023-11-24T13:19:21,42.805,6.029,CST-1368DR,4102,4359,11260,01.308,553
2023-11-24T13:22:23,42.805,6.029,CST-1368DR,4102,4359,11259,01.309,553
2023-11-24T13:25:25,42.805,6.029,CST-1368DR,4102,4359,11261,01.308,553
2023-11-24T13:28:26,42.805,6.029,CST-1368DR,4102,4358,11259,01.309,553
2023-11-24T13:31:28,42.805,6.029,CST-1368DR,4102,4357,11256,01.310,553
2023-11-24T13:34:30,42.805,6.029,CST-1368DR,4102,4359,11260,01.308,553
2023-11-24T13:37:31,42.805,6.029,CST-1368DR,4102,4359,11261,01.308,553
2023-11-24T13:40:33,42.805,6.029,CST-1368DR,4102,4359,11259,01.309,553
2023-11-24T13:43:34,42.805,6.029,CST-1368DR,4102,4359,11261,01.308,553
2023-11-24T13:46:36,42.805,6.029,CST-1368DR,4102,4359,11261,01.308,553
2023-11-24T13:49:37,42.805,6.029,CST-1368DR,4102,4359,11260,01.308,553
2023-11-24T13:52:39,42.805,6.029,CST-1368DR,4102,4358,11259,01.309,553
2023-11-24T13:55:41,42.805,6.029,CST-1368DR,4102,4359,11261,01.308,553
2023-11-24T13:58:42,42.805,6.029,CST-1368DR,4102,4359,11261,01.308,553
2023-11-24T14:01:44,42.805,6.029,CST-1368DR,4102,4357,11255,01.310,553
2023-11-24T14:04:45,42.805,6.029,CST-1368DR,4102,4358,11257,01.309,553
2023-11-24T14:07:47,42.805,6.029,CST-1368DR,4102,4357,11256,01.310,553
2023-11-24T14:10:48,42.805,6.029,CST-1368DR,4102,4359,11259,01.309,553
2023-11-24T14:13:50,42.805,6.029,CST-1368DR,4102,4359,11261,01.308,553
2023-11-24T14:16:52,42.805,6.029,CST-1368DR,4102,4359,11261,01.308,553
2023-11-24T14:19:53,42.805,6.029,CST-1368DR,4102,4358,11259,01.309,553
2023-11-24T14:22:55,42.805,6.029,CST-1368DR,4102,4359,11261,01.308,553
2023-11-24T14:25:56,42.805,6.029,CST-1368DR,4102,4359,11259,01.309,553
2023-11-24T14:28:58,42.805,6.029,CST-1368DR,4102,4359,11261,01.308,553
2023-11-24T14:32:00,42.805,6.029,CST-1368DR,4102,4359,11260,01.308,553
2023-11-24T14:35:01,42.805,6.029,CST-1368DR,4102,4359,11260,01.308,553
2023-11-24T14:38:03,42.805,6.029,CST-1368DR,4102,4359,11260,01.308,553
2023-11-24T14:41:04,42.805,6.029,CST-1368DR,4102,4356,11252,01.311,553
2023-11-24T14:44:06,42.805,6.029,CST-1368DR,4102,4358,11258,01.309,553
2023-11-24T14:47:07,42.805,6.029,CST-1368DR,4102,4358,11258,01.309,553
2023-11-24T14:50:09,42.805,6.029,CST-1368DR,4102,4358,11258,01.309,553
2023-11-24T14:53:11,42.805,6.029,CST-1368DR,4102,4358,11258,01.309,553
2023-11-24T14:56:12,42.805,6.029,CST-1368DR,4102,4359,11259,01.309,553
2023-11-24T14:59:14,42.805,6.029,CST-1368DR,4102,4358,11257,01.309,553
2023-11-24T15:02:15,42.805,6.029,CST-1368DR,4102,4359,11260,01.308,553
2023-11-24T15:05:17,42.805,6.029,CST-1368DR,4102,4359,11259,01.309,553
2023-11-24T15:08:18,42.805,6.029,CST-1368DR,4102,4358,11258,01.309,553
2023-11-24T15:11:20,42.805,6.029,CST-1368DR,4102,4358,11258,01.309,553
2023-11-24T15:14:22,42.805,6.029,CST-1368DR,4102,4358,11258,01.309,553
2023-11-24T15:17:23,42.805,6.029,CST-1368DR,4102,4358,11258,01.309,553
2023-11-24T15:20:25,42.805,6.029,CST-1368DR,4102,4359,11260,01.308,553
2023-11-24T15:23:26,42.805,6.029,CST-1368DR,4102,4359,11259,01.309,553
2023-11-24T15:26:28,42.805,6.029,CST-1368DR,4102,4358,11259,01.309,553
2023-11-24T15:29:30,42.805,6.029,CST-1368DR,4102,4358,11257,01.309,553
2023-11-24T15:32:31,42.805,6.029,CST-1368DR,4102,4359,11259,01.309,553
2023-11-24T15:35:33,42.805,6.029,CST-1368DR,4102,4358,11257,01.309,553
2023-11-24T15:38:34,42.805,6.029,CST-1368DR,4102,4359,11261,01.308,553
2023-11-24T15:41:36,42.805,6.029,CST-1368DR,4102,4360,11262,01.307,553
2023-11-24T15:44:38,42.805,6.029,CST-1368DR,4102,4355,11250,01.312,553
2023-11-24T15:47:39,42.805,6.029,CST-1368DR,4102,4359,11260,01.308,553
2023-11-24T15:50:41,42.805,6.029,CST-1368DR,4102,4357,11256,01.310,553
2023-11-24T15:53:42,42.805,6.029,CST-1368DR,4102,4360,11262,01.307,553
2023-11-24T15:56:44,42.805,6.029,CST-1368DR,4102,4358,11258,01.309,553
2023-11-24T15:59:45,42.805,6.029,CST-1368DR,4102,4359,11261,01.308,553
2023-11-24T16:02:47,42.805,6.029,CST-1368DR,4102,4358,11259,01.309,553
2023-11-24T16:05:49,42.805,6.029,CST-1368DR,4102,4359,11260,01.308,553
2023-11-24T16:08:50,42.805,6.029,CST-1368DR,4102,4359,11261,01.308,553
2023-11-24T16:11:52,42.805,6.029,CST-1368DR,4102,4358,11259,01.309,553
2023-11-24T16:14:53,42.805,6.029,CST-1368DR,4102,4358,11259,01.309,553
2023-11-24T16:17:55,42.805,6.029,CST-1368DR,4102,4358,11257,01.309,553
2023-11-24T16:20:57,42.805,6.029,CST-1368DR,4102,4359,11260,01.308,553
2023-11-24T16:23:58,42.805,6.029,CST-1368DR,4102,4358,11257,01.309,553
2023-11-24T16:27:00,42.805,6.029,CST-1368DR,4102,4359,11259,01.309,553
2023-11-24T16:30:01,42.805,6.029,CST-1368DR,4102,4358,11259,01.309,553
2023-11-24T16:33:03,42.805,6.029,CST-1368DR,4102,4359,11261,01.308,553
2023-11-24T16:36:04,42.805,6.029,CST-1368DR,4102,4359,11260,01.308,553